Red Bluff, CA

1:56 AM PST on November 22, 2019 (GMT -0800)
Red Bluff Municipal

Weather History for KRBL - September, 2019

Change the Weather History Date:

Sunday, September 1, 2019

  Actual Average Record
Temperature  
Mean Temperature 81 °F -  
Max Temperature 98 °F 94 °F 114 °F (1950)
Min Temperature 64 °F 61 °F 48 °F (1999)
Cooling Degree Days 16    
Growing Degree Days 31 (Base 50)    
Moisture  
Dew Point 49 °F    
Average Humidity 35    
Maximum Humidity 56    
Minimum Humidity 17    
Precipitation  
Precipitation 0.00 in - - ()
Sea Level Pressure  
Sea Level Pressure 29.87 in    
Wind  
Wind Speed 5 mph ()    
Max Wind Speed 15 mph    
Max Gust Speed -    
Visibility 10.0 miles    
Events      
Averages and records for this station are not official NWS values.
T = Trace of Precipitation, MM = Missing Value Source: Averaged Metar Reports

Daily Weather History Graph

Daily Weather History Graph

Search for Another Location

Airport or City:

Astronomy

Sep. 01, 2019 Rise Set
Actual Time 6:36 AM PDT 7:40 PM PDT
Civil Twilight 6:08 AM PDT 8:08 PM PDT
Nautical Twilight 5:35 AM PDT 8:41 PM PDT
Astronomical Twilight 5:00 AM PDT 9:16 PM PDT
Moon 9:13 AM PDT (9/1) 9:31 PM PDT (9/1)
Length of Visible Light 13h 59m
Length of Day
13h 04m
Waxing Crescent, 8% of the Moon is Illuminated
Sep 1
Waxing Crescent
Sep 5
First Quarter
Sep 13
Full
Sep 21
Last Quarter
Sep 28
New

Hourly Weather History & Observations

Time (PDT) Temp. Dew Point Humidity Pressure Visibility Wind Dir Wind Speed Gust Speed Precip Events Conditions
12:54 AM 73.9 °F 54.0 °F 50% 29.86 in 10.0 mi NW 3.5 mph - N/A   Clear
1:54 AM 71.1 °F 53.1 °F 53% 29.86 in 10.0 mi NW 5.8 mph - N/A   Clear
2:54 AM 70.0 °F 52.0 °F 53% 29.87 in 10.0 mi WNW 6.9 mph - N/A   Clear
3:54 AM 70.0 °F 48.9 °F 47% 29.87 in 10.0 mi WNW 4.6 mph - N/A   Clear
4:54 AM 66.9 °F 48.9 °F 52% 29.88 in 10.0 mi WNW 4.6 mph - N/A   Clear
5:54 AM 64.9 °F 48.9 °F 56% 29.89 in 10.0 mi WNW 3.5 mph - N/A   Clear
6:54 AM 64.9 °F 48.9 °F 56% 29.91 in 10.0 mi WNW 4.6 mph - N/A   Clear
7:54 AM 71.1 °F 50.0 °F 47% 29.92 in 10.0 mi Calm Calm - N/A   Clear
8:54 AM 78.1 °F 48.9 °F 36% 29.93 in 10.0 mi NNW 5.8 mph - N/A   Clear
9:54 AM 82.9 °F 48.9 °F 31% 29.93 in 10.0 mi Calm Calm - N/A   Clear
10:54 AM 87.1 °F 46.9 °F 25% 29.92 in 10.0 mi Calm Calm - N/A   Clear
11:54 AM 90.0 °F 46.9 °F 23% 29.91 in 10.0 mi SE 5.8 mph - N/A   Clear
12:54 PM 93.9 °F 48.0 °F 21% 29.89 in 10.0 mi ESE 11.5 mph - N/A   Clear
1:54 PM 95.0 °F 48.9 °F 21% 29.88 in 10.0 mi SSE 9.2 mph - N/A   Clear
2:54 PM 97.0 °F 48.9 °F 19% 29.86 in 10.0 mi SSE 10.4 mph - N/A   Clear
3:54 PM 98.1 °F 46.0 °F 17% 29.84 in 10.0 mi SSE 15.0 mph - N/A   Clear
4:54 PM 98.1 °F 46.0 °F 17% 29.83 in 10.0 mi SSE 12.7 mph - N/A   Clear
5:54 PM 97.0 °F 46.0 °F 18% 29.83 in 10.0 mi SSE 9.2 mph - N/A   Clear
6:54 PM 93.9 °F 45.0 °F 18% 29.82 in 10.0 mi South 9.2 mph - N/A   Clear
7:54 PM 86.0 °F 48.0 °F 27% 29.82 in 10.0 mi SSE 5.8 mph - N/A   Clear
8:54 PM 82.9 °F 48.9 °F 31% 29.83 in 10.0 mi Calm Calm - N/A   Clear
9:54 PM 78.1 °F 51.1 °F 39% 29.84 in 10.0 mi NNW 3.5 mph - N/A   Clear
10:54 PM 73.9 °F 50.0 °F 43% 29.86 in 10.0 mi WNW 6.9 mph - N/A   Clear
11:54 PM 73.0 °F 48.0 °F 41% 29.86 in 10.0 mi WNW 3.5 mph - N/A   Clear